Regional Weather Roundup
Issued by NWS Sterling, VA

Home | Current Version | Previous Version | Graphics & Text | Print | Product List | Glossary On
Versions: 1 2 3 4 5 6 7 8 9 10 11 12 13 14 15 16 17 18 19 20 21 22 23 24 25 26 27 28 29 30 31 32 33 34 35 36 37 38 39 40 41 42 43 44 45 46 47 48 49 50
000
ASUS41 KLWX 240810
RWRLWX

REGIONAL WEATHER ROUNDUP
NATIONAL WEATHER SERVICE BALTIMORE MD/WASHINGTON DC
300 AM EST FRI FEB 24 2017

Note: "FAIR" indicates few or no clouds below 12,000 feet
with no significant weather and/or obstructions to visibility.
 TC=TEMPERATURE CELSIUS

 * =Non NWS site. Station does not report precipitation (e.g. rain,
    snow, etc.), thunder, or fog.

DCZ001-MDZ009-015-VAZ040>042-051-053>054-240900-
WASHINGTON METRO

CITY           SKY/WX    TMP DP  RH WIND       PRES   REMARKS
WASHINGTON NAT PTCLDY    56  52  86 S6        29.91R
DULLES         PTCLDY    58  49  72 S6        29.89S
ANDREWS AFB    PTCLDY    57  52  83 S9        29.89F
FT BELVOIR     PTCLDY    50  47  89 CALM      29.90S
QUANTICO       CLEAR     54  53  97 SW6       29.91S
COLLEGE PARK*  PTCLDY    55  50  82 CALM      29.90S
LEESBURG*      CLEAR     59  54  82 MISG      29.89F
MANASSAS*      CLEAR     47  46  97 CALM      29.90S
GAITHERSBURG*  PTCLDY    57  48  72 S8        29.93F

$$

MDZ006>007-011-014-240900-
BALTIMORE METRO

CITY           SKY/WX    TMP DP  RH WIND       PRES   REMARKS
BWI AIRPORT    PTCLDY    49  47  93 CALM      29.90S
MD SCIENCE CTR   N/A     55  48  77 MISG      29.91S
MARTIN STATE   PTCLDY    50  48  93 CALM      29.92S
ANNAPOLIS      CLEAR     51  49  92 CALM      29.90F
FORT MEADE*    PTCLDY    46  45  93 CALM      29.93S

$$

MDZ012-015-019>023-240900-
MARYLAND EASTERN SHORE

CITY           SKY/WX    TMP DP  RH WIND       PRES   REMARKS
OCEAN CITY     CLEAR     52  50  93 SW3       29.96S
SALISBURY      CLEAR     50  50 100 SE3       29.94F
BAY BRIDGE AP* CLEAR     55  52  88 S6        29.91S
CAMBRIDGE*     CLEAR     50  48  93 S6        29.93S
EASTON*        CLEAR     55  51  85 S5        29.95F

$$

MDZ017>025-240900-
SOUTHERN MARYLAND

CITY           SKY/WX    TMP DP  RH WIND       PRES   REMARKS
PATUXENT RIVER CLEAR     47  47 100 CALM      29.91F
ST INIGOES     CLEAR     57  53  86 SE6       29.91F
LEONARDTOWN*   CLEAR     55  52  88 S3        29.93S

$$

MDZ003>005-240900-
NORTH CENTRAL MARYLAND

CITY           SKY/WX    TMP DP  RH WIND       PRES   REMARKS
FREDERICK*     PTCLDY    50  50 100 CALM      29.91S
HAGERSTOWN APT MOCLDY    61  52  72 S6        29.85F
WESTMINSTER*   PTCLDY    57  52  82 S7        29.88F

$$

MDZ501>502-240900-
WESTERN MARYLAND

CITY           SKY/WX    TMP DP  RH WIND       PRES   REMARKS
OAKLAND*       PTCLDY    50  46  87 S8        29.88F
CUMBERLAND*    PTCLDY    54  50  87 CALM      29.89F

$$

VAZ025>031-240900-
SHENANDOAH VALLEY

CITY           SKY/WX    TMP DP  RH WIND       PRES   REMARKS
WINCHESTER*    PTCLDY    52  46  82 CALM      29.86S
FRONT ROYAL*   MOCLDY    55  50  82 CALM      29.86S
LURAY*         CLEAR     46  46 100 CALM      29.88S
NEW MARKET*    CLEAR     44  43  94 SW5       29.88S
STAUNTON*      CLEAR     44  43  99 CALM      29.91S
WAYNESBORO*    CLEAR     50  47  90 CALM      29.90F

$$

WVZ021-048>050-054>055-240900-
EASTERN WEST VIRGINIA PANHANDLE

CITY           SKY/WX    TMP DP  RH WIND       PRES   REMARKS
MARTINSBURG    PTCLDY    56  49  77 S5        29.85S
PETERSBURG*    PTCLDY    47  46  95 CALM      29.87F

$$

VAZ036>039-050-240900-
CENTRAL FOOTHILLS

CITY           SKY/WX    TMP DP  RH WIND       PRES   REMARKS
CHARLOTTESVILL CLEAR     56  51  84 S8        29.88F
CULPEPER*      CLEAR     48  47  96 CALM      29.90F
ORANGE*        CLEAR     52  48  87 CALM      29.91F
GORDONSVILLE*  CLEAR     46  46 100 CALM      29.90S
WARRENTON*     CLEAR     55  48  76 S3        29.89F

$$

VAZ055>057-240900-
NORTH AND CENTRAL PIEDMONT

CITY           SKY/WX    TMP DP  RH WIND       PRES   REMARKS
FREDERICKSBRG* CLEAR     57  53  89 CALM      29.90S
STAFFORD*      CLEAR     55  53  94 CALM      29.94F

$$

NCZ024-NYZ072-PAZ021-071-VAZ022-071-240900-
OTHER REGIONAL OBSERVATIONS

CITY           SKY/WX    TMP DP  RH WIND       PRES   REMARKS
NEW YORK CITY  CLEAR     60  51  72 SW5       29.93S
PHILADELPHIA   CLEAR     54  50  86 S7        29.92F
PITTSBURGH     CLOUDY    58  53  84 S3        29.80F
ROANOKE        CLEAR     52  49  89 CALM      29.92F
RICHMOND       CLEAR     54  53  97 S3        29.91F
RALEIGH        CLEAR     53  50  89 CALM      29.92F

$$

ANZ530>537-240900-
MARINE OBSERVATIONS

STATION/POSITION TIME  TEMP    WIND        PRES
                       AIR SEA DIR/SP/G
                 (UTC) (F)     (DEG/KT/KT) (MB)
THOMAS PT LIGHT  0800   48 44  190/  7/  8   N/A
BALT KEY BRIDGE  0748   51      90/  2/  3 1012.6F
COVE POINT       0748   52     190/ 10/ 11 1013.5F
LEWISETTA        0748   58 46  200/  6/  6 1012.7F
SOLOMONS ISLAND  0748   55 45  110/  4/  4   N/A
PINEY POINT      0748          130/  5/  6   N/A

$$




USA.gov is the U.S. government's official web portal to all federal, state and local government web resources and services.